Temp
-14 -14 -14 -15 -15 -15 -15 -15 -15 -15 -15 -15 -15 -15 -15 -16 -16 -16 -16 -15 -15 -15 -15 -15 -15 -14 -14 -14 -14 -14 -14 -14 -14 -14 -14 -14 -14 -14 -14 -14 -14 -14
-14 -14 -14 -15 -15 -15 -16 -16 -15 -15 -15 -15 -15 -15 -15 -16 -16 -16 -16 -16 -15 -15 -15 -15 -15 -15 -14 -14 -14 -14 -14 -14 -14 -14 -14 -14 -14 -14 -14 -14 -14 -14
-14 -14 -14 -14 -15 -15 -16 -15 -15 -15 -15 -15 -15 -15 -15 -16 -16 -16 -16 -16 -15 -15 -15 -15 -15 -15 -14 -14 -14 -14 -14 -14 -14 -14 -15 -15 -15 -14 -14 -14 -14 -14
-15 -14 -14 -15 -15 -15 -16 -16 -15 -15 -15 -15 -15 -15 -15 -16 -16 -16 -16 -16 -15 -15 -15 -15 -15 -15 -15 -14 -14 -15 -15 -15 -15 -15 -15 -15 -15 -15 -15 -14 -14 -14
-15 -15 -15 -15 -15 -15 -16 -16 -16 -16 -16 -16 -15 -15 -16 -16 -16 -16 -16 -16 -15 -15 -15 -15 -15 -15 -15 -15 -15 -15 -15 -15 -15 -15 -15 -15 -15 -15 -15 -15 -15 -15
-15 -15 -15 -15 -15 -15 -16 -16 -16 -16 -16 -16 -16 -16 -16 -16 -16 -16 -16 -16 -16 -16 -16 -15 -15 -15 -15 -15 -15 -15 -15 -15 -15 -15 -15 -15 -15 -15 -15 -15 -15 -15
-15 -15 -15 -15 -15 -15 -15 -16 -16 -16 -16 -16 -16 -16 -16 -16 -16 -16 -16 -16 -16 -16 -16 -16 -16 -15 -15 -15 -15 -15 -15 -15 -15 -15 -15 -15 -15 -15 -15 -15 -15 -15
-15 -15 -15 -15 -15 -15 -15 -15 -16 -16 -16 -16 -15 -15 -15 -16 -16 -16 -16 -16 -16 -16 -15 -15 -15 -15 -15 -15 -15 -15 -15 -15 -15 -15 -15 -15 -15 -15 -15 -15 -15 -15
-15 -15 -15 -15 -15 -16 -16 -16 -16 -16 -16 -16 -15 -15 -15 -15 -16 -16 -16 -16 -16 -15 -15 -15 -15 -15 -15 -15 -15 -15 -15 -15 -15 -15 -15 -15 -15 -15 -16 -16 -16 -16
-15 -15 -15 -16 -16 -16 -16 -16 -16 -16 -16 -16 -16 -16 -15 -15 -16 -16 -16 -15 -15 -15 -16 -15 -15 -15 -15 -15 -15 -15 -15 -15 -15 -15 -15 -15 -15 -16 -16 -16 -16 -16
-15 -15 -16 -16 -16 -16 -16 -16 -16 -16 -16 -16 -16 -16 -16 -16 -16 -16 -16 -15 -15 -15 -15 -15 -15 -15 -15 -15 -15 -15 -15 -15 -15 -15 -15 -15 -16 -16 -16 -16 -16 -16
-15 -15 -16 -16 -16 -16 -16 -16 -16 -16 -16 -16 -16 -16 -16 -16 -16 -16 -16 -16 -16 -15 -15 -15 -15 -15 -15 -16 -15 -15 -15 -15 -15 -15 -15 -16 -16 -16 -16 -16 -16 -16
-15 -16 -16 -16 -16 -16 -16 -16 -16 -16 -16 -16 -16 -16 -16 -16 -16 -16 -16 -16 -16 -16 -15 -15 -16 -16 -16 -16 -16 -16 -16 -16 -16 -16 -16 -16 -16 -16 -16 -16 -16 -16
-16 -16 -16 -16 -16 -16 -16 -16 -16 -16 -16 -16 -16 -16 -16 -16 -16 -16 -16 -16 -16 -16 -16 -15 -15 -16 -16 -16 -16 -16 -16 -16 -16 -16 -16 -15 -15 -16 -16 -16 -16 -16
-16 -16 -16 -16 -16 -16 -16 -16 -16 -16 -16 -16 -16 -16 -16 -16 -16 -16 -16 -16 -16 -16 -16 -15 -15 -16 -16 -16 -16 -16 -16 -16 -16 -16 -16 -16 -16 -16 -16 -16 -16 -16
-16 -16 -16 -16 -16 -16 -16 -16 -16 -16 -16 -16 -16 -16 -16 -16 -16 -16 -16 -16 -16 -16 -16 -16 -16 -16 -16 -16 -16 -16 -16 -16 -16 -16 -16 -16 -16 -16 -16 -16 -16 -17
-16 -15 -16 -16 -16 -16 -16 -16 -16 -16 -16 -16 -16 -16 -16 -16 -16 -16 -16 -16 -16 -16 -16 -16 -16 -16 -16 -16 -16 -16 -16 -16 -16 -16 -16 -16 -16 -16 -16 -17 -17 -17
-15 -15 -16 -16 -15 -15 -15 -16 -16 -16 -15 -15 -15 -16 -16 -16 -16 -16 -16 -16 -16 -16 -16 -16 -16 -16 -16 -16 -16 -16 -16 -16 -16 -16 -16 -16 -16 -16 -16 -17 -17 -17
-15 -15 -16 -16 -16 -16 -16 -16 -16 -15 -15 -15 -16 -16 -16 -16 -16 -16 -16 -16 -16 -16 -16 -16 -16 -16 -16 -16 -16 -16 -16 -16 -16 -16 -16 -16 -16 -16 -17 -17 -17 -17
-16 -16 -16 -16 -16 -16 -16 -16 -16 -16 -15 -16 -16 -16 -16 -16 -16 -16 -16 -16 -16 -16 -16 -16 -16 -16 -16 -16 -16 -16 -16 -16 -16 -16 -17 -17 -16 -17 -17 -17 -17 -17
-16 -16 -16 -16 -16 -16 -16 -16 -16 -16 -16 -16 -16 -16 -16 -16 -16 -16 -16 -16 -16 -16 -16 -16 -16 -16 -16 -16 -16 -16 -16 -17 -17 -17 -17 -17 -17 -17 -17 -17 -17 -18
-16 -16 -16 -16 -16 -16 -16 -16 -16 -16 -16 -16 -16 -16 -16 -16 -16 -16 -16 -16 -16 -16 -16 -16 -16 -16 -16 -16 -16 -17 -17 -17 -17 -17 -17 -17 -17 -17 -17 -17 -17 -17
-16 -16 -16 -16 -16 -16 -16 -16 -16 -16 -16 -16 -16 -16 -16 -17 -16 -16 -16 -16 -16 -16 -16 -16 -16 -16 -16 -16 -16 -16 -17 -17 -17 -17 -17 -17 -17 -17 -17 -17 -17 -17
-16 -16 -16 -16 -17 -17 -17 -17 -17 -17 -16 -16 -16 -16 -17 -17 -17 -17 -17 -17 -17 -17 -16 -16 -16 -16 -16 -16 -16 -16 -16 -17 -17 -17 -17 -17 -17 -17 -17 -17 -17 -17
-16 -16 -16 -16 -16 -17 -17 -17 -17 -17 -17 -17 -17 -17 -17 -17 -17 -17 -17 -17 -17 -17 -17 -17 -17 -17 -17 -17 -17 -17 -17 -17 -17 -17 -17 -17 -17 -17 -17 -17 -17 -17
-16 -16 -16 -16 -17 -17 -17 -17 -17 -17 -17 -17 -17 -17 -17 -17 -17 -17 -17 -17 -17 -17 -17 -17 -17 -17 -17 -17 -17 -17 -17 -17 -17 -17 -17 -17 -17 -17 -17 -17 -17 -17
Height
5779 5780 5781 5781 5782 5783 5784 5785 5785 5786 5788 5789 5789 5790 5790 5790 5791 5792 5793 5793 5794 5794 5795 5796 5796 5797 5798 5798 5799 5799 5799 5800 5800 5800 5801 5801 5802 5802 5802 5803 5803 5803
5777 5778 5779 5779 5780 5781 5782 5783 5784 5785 5786 5787 5787 5787 5788 5788 5789 5790 5791 5792 5793 5793 5794 5794 5795 5795 5796 5797 5797 5797 5798 5798 5798 5798 5798 5799 5799 5800 5800 5800 5801 5801
5775 5776 5777 5777 5778 5778 5779 5781 5782 5783 5784 5785 5785 5785 5785 5786 5787 5788 5789 5790 5791 5792 5793 5793 5793 5794 5794 5795 5795 5795 5795 5796 5796 5796 5796 5797 5797 5797 5798 5798 5799 5799
5773 5774 5775 5775 5775 5776 5778 5779 5780 5781 5782 5782 5783 5783 5783 5784 5785 5786 5787 5788 5789 5790 5791 5791 5792 5792 5792 5793 5793 5793 5793 5794 5794 5794 5794 5794 5795 5795 5796 5796 5797 5797
5771 5772 5773 5774 5774 5775 5776 5777 5778 5779 5780 5780 5781 5781 5782 5783 5784 5784 5785 5786 5787 5788 5788 5789 5790 5790 5790 5791 5791 5791 5792 5792 5792 5792 5792 5792 5792 5793 5793 5794 5794 5795
5769 5770 5771 5772 5773 5774 5774 5775 5776 5777 5778 5778 5779 5779 5780 5781 5782 5782 5783 5784 5785 5785 5786 5787 5787 5788 5788 5789 5789 5789 5789 5789 5790 5789 5789 5790 5790 5790 5791 5791 5792 5792
5767 5768 5769 5770 5771 5772 5773 5773 5774 5775 5776 5776 5777 5777 5777 5778 5779 5780 5781 5782 5782 5783 5784 5784 5785 5785 5786 5786 5787 5787 5787 5787 5787 5787 5787 5787 5787 5788 5788 5788 5789 5789
5765 5766 5767 5768 5770 5770 5771 5772 5772 5773 5773 5774 5774 5775 5775 5775 5776 5777 5778 5779 5780 5781 5781 5782 5782 5783 5783 5784 5784 5785 5785 5785 5785 5785 5785 5785 5785 5785 5786 5786 5786 5787
5763 5764 5765 5766 5767 5768 5769 5770 5770 5771 5771 5771 5772 5773 5773 5773 5774 5775 5776 5777 5778 5779 5779 5780 5780 5781 5781 5781 5782 5782 5782 5783 5783 5783 5783 5783 5783 5783 5783 5783 5784 5784
5760 5761 5762 5762 5763 5765 5766 5767 5768 5769 5769 5769 5770 5771 5771 5771 5772 5773 5774 5775 5776 5777 5777 5778 5778 5779 5779 5779 5780 5780 5780 5780 5780 5780 5780 5780 5780 5780 5781 5781 5782 5782
5755 5755 5756 5758 5759 5761 5763 5764 5765 5766 5766 5767 5768 5768 5769 5769 5770 5770 5771 5772 5773 5774 5775 5775 5776 5777 5777 5777 5778 5778 5778 5778 5778 5778 5778 5778 5778 5778 5778 5778 5779 5780
5751 5752 5753 5755 5757 5758 5760 5761 5762 5763 5763 5764 5765 5766 5767 5767 5767 5768 5769 5770 5770 5771 5772 5773 5774 5774 5775 5775 5776 5776 5776 5775 5775 5775 5775 5775 5776 5776 5776 5776 5777 5777
5750 5751 5752 5754 5756 5756 5757 5758 5759 5760 5761 5761 5762 5763 5764 5764 5765 5766 5767 5767 5767 5768 5770 5770 5771 5772 5773 5773 5774 5774 5774 5773 5773 5773 5773 5773 5773 5773 5774 5774 5774 5774
5748 5749 5750 5752 5753 5754 5755 5756 5757 5757 5758 5758 5759 5760 5761 5762 5762 5763 5764 5765 5765 5766 5767 5768 5769 5770 5771 5771 5772 5772 5772 5772 5772 5771 5771 5771 5771 5771 5771 5771 5771 5771
5745 5746 5747 5749 5750 5751 5752 5753 5754 5754 5755 5756 5756 5757 5759 5759 5760 5761 5762 5762 5762 5763 5764 5765 5766 5767 5768 5769 5769 5769 5770 5770 5770 5770 5770 5769 5768 5768 5768 5768 5768 5769
5742 5743 5745 5746 5747 5748 5749 5750 5750 5751 5752 5753 5753 5754 5756 5756 5757 5758 5759 5759 5759 5760 5760 5761 5763 5764 5765 5765 5766 5766 5766 5767 5767 5767 5767 5767 5766 5765 5765 5765 5765 5766
5740 5741 5742 5744 5745 5746 5746 5746 5747 5748 5749 5749 5750 5751 5752 5753 5754 5755 5755 5756 5757 5757 5757 5758 5759 5760 5761 5762 5762 5762 5763 5763 5764 5764 5764 5764 5763 5763 5763 5763 5763 5763
5738 5739 5739 5740 5742 5743 5743 5743 5744 5745 5745 5746 5747 5748 5749 5750 5751 5752 5752 5753 5754 5755 5755 5755 5756 5757 5758 5758 5759 5759 5760 5760 5761 5761 5761 5761 5761 5760 5760 5760 5760 5760
5736 5736 5737 5738 5738 5739 5739 5740 5741 5742 5742 5743 5744 5745 5746 5746 5747 5748 5749 5750 5751 5751 5752 5752 5753 5754 5754 5755 5755 5756 5757 5757 5757 5758 5758 5758 5758 5758 5758 5758 5758 5758
5733 5734 5734 5735 5736 5736 5737 5737 5738 5739 5739 5739 5741 5742 5742 5743 5744 5745 5746 5746 5747 5747 5748 5749 5750 5751 5751 5752 5752 5753 5753 5754 5754 5754 5755 5755 5755 5755 5755 5755 5755 5754
5730 5731 5732 5732 5733 5734 5735 5735 5736 5736 5736 5737 5738 5739 5740 5741 5742 5743 5743 5743 5744 5744 5745 5747 5747 5748 5748 5748 5749 5749 5750 5750 5750 5750 5750 5751 5751 5751 5751 5751 5751 5750
5727 5728 5729 5730 5731 5732 5733 5733 5734 5734 5734 5735 5736 5736 5737 5738 5739 5740 5741 5741 5742 5742 5743 5744 5744 5744 5744 5745 5745 5745 5746 5746 5746 5746 5746 5747 5747 5747 5747 5747 5746 5746
5725 5725 5726 5727 5728 5729 5730 5731 5731 5731 5732 5733 5733 5734 5734 5735 5736 5737 5738 5739 5739 5740 5740 5741 5741 5741 5741 5741 5742 5742 5742 5742 5742 5742 5742 5742 5743 5743 5742 5742 5742 5742
5723 5723 5724 5724 5725 5726 5727 5728 5729 5729 5729 5730 5731 5731 5732 5733 5734 5735 5735 5736 5736 5737 5737 5738 5738 5738 5738 5738 5738 5739 5739 5738 5738 5739 5739 5738 5738 5738 5738 5738 5738 5738
5720 5720 5721 5721 5722 5723 5724 5725 5725 5726 5726 5727 5728 5728 5729 5730 5730 5731 5731 5732 5733 5733 5734 5734 5734 5734 5734 5735 5735 5735 5735 5735 5735 5735 5735 5734 5734 5734 5734 5735 5734 5734
5717 5718 5718 5719 5719 5720 5720 5721 5722 5722 5723 5723 5724 5724 5725 5725 5726 5727 5727 5728 5728 5729 5729 5729 5729 5730 5730 5731 5730 5730 5731 5731 5730 5730 5730 5730 5730 5730 5730 5730 5730 5729
Wind_Speed
18 18 17 17 17 17 16 16 18 19 19 19 20 21 21 20 18 18 17 18 18 19 18 18 17 16 16 16 16 17 17 17 17 16 16 16 16 16 16 16 16 16
17 17 16 17 17 16 15 17 18 18 19 19 19 20 21 19 17 17 18 20 21 20 19 18 18 17 17 17 17 17 17 17 16 16 16 16 16 16 16 16 16 16
17 17 17 17 16 16 16 17 18 18 18 18 18 19 20 18 17 18 19 21 22 21 20 20 20 19 18 17 17 18 17 17 16 15 16 16 16 16 16 16 16 16
17 17 17 16 16 16 16 17 19 18 18 17 17 18 18 17 17 18 20 21 22 21 21 21 20 19 18 18 18 17 17 16 15 15 15 16 16 16 17 17 17 17
18 17 16 15 15 15 16 17 19 19 18 18 17 17 16 16 17 18 20 21 22 21 21 20 19 19 18 18 18 17 16 15 15 15 15 16 17 17 17 18 18 18
19 17 16 15 14 15 15 17 18 18 18 19 19 18 18 18 18 20 21 21 21 21 21 21 20 20 19 18 18 17 17 17 17 17 17 17 18 18 18 18 19 19
19 19 18 17 16 16 16 16 17 17 18 19 20 20 20 20 20 21 22 22 21 21 21 21 21 21 20 19 18 18 17 18 18 19 19 18 18 18 18 18 19 19
19 19 19 18 17 16 17 16 16 17 19 20 21 21 21 21 21 21 21 22 22 21 20 20 20 20 19 19 18 18 17 17 18 19 19 19 18 18 18 18 19 19
18 20 20 19 18 18 17 17 17 18 20 21 21 21 21 21 20 20 21 22 22 21 20 20 20 19 19 18 17 17 17 18 18 19 20 20 19 18 18 18 19 19
18 20 22 22 22 21 19 19 19 20 21 21 21 21 22 22 22 22 23 23 22 21 20 20 20 19 18 17 16 17 18 19 20 21 22 22 21 20 19 18 19 20
22 23 24 25 25 24 23 22 21 21 22 22 22 21 22 23 24 24 24 23 21 21 20 19 18 17 17 16 17 18 19 20 21 22 22 22 21 20 19 19 19 20
24 25 25 24 23 23 23 23 23 23 23 23 23 23 23 24 25 24 23 22 22 21 19 18 18 17 17 17 18 19 20 21 21 21 21 21 21 20 20 20 20 21
24 24 24 23 22 21 21 22 24 25 24 23 23 23 23 24 25 25 24 23 24 22 20 18 18 18 18 18 19 20 22 23 23 22 21 21 21 20 21 21 21 22
23 24 24 24 24 24 21 20 21 23 24 24 24 23 23 24 26 26 24 24 25 24 22 21 20 19 19 19 20 21 23 23 23 23 22 21 22 22 22 22 23 24
23 24 25 25 26 26 25 23 21 21 22 23 22 22 22 23 25 25 24 25 26 26 25 24 22 21 21 21 21 22 23 23 23 23 23 23 24 24 24 24 25 25
24 24 24 25 26 26 26 26 25 23 23 24 23 22 22 24 26 26 26 27 27 27 27 27 25 24 24 24 24 23 23 23 23 23 24 25 25 25 26 26 26 27
23 23 23 23 25 26 27 28 28 25 24 25 25 25 24 25 26 28 29 29 29 29 29 29 27 26 26 26 25 24 22 22 23 25 26 27 26 26 26 27 27 28
23 23 22 21 22 25 28 30 29 27 28 28 27 27 28 28 27 28 30 30 30 29 30 30 27 26 26 25 24 23 22 22 23 26 27 28 28 28 27 27 28 29
25 25 23 22 21 21 23 24 25 28 32 32 29 26 28 29 28 28 29 30 30 31 31 29 25 24 24 23 23 22 22 22 24 26 28 30 30 29 28 28 29 30
25 25 25 24 22 21 20 20 21 23 26 27 23 20 21 22 22 23 26 29 30 31 30 26 24 24 24 23 23 23 23 23 25 26 29 30 30 29 28 28 30 31
22 23 24 23 22 21 21 21 20 20 22 23 22 20 19 21 21 22 23 25 27 28 27 25 25 25 25 25 25 23 23 25 26 27 29 30 29 28 28 29 30 32
21 22 22 22 22 22 22 21 21 22 23 23 23 22 21 21 22 22 23 24 24 25 26 26 27 28 28 28 27 25 25 26 28 29 29 30 30 29 29 30 31 33
20 20 21 22 22 22 22 23 23 24 24 24 23 22 21 21 21 22 22 23 24 25 27 28 29 31 31 31 30 28 27 28 30 31 31 31 32 32 32 32 33 34
20 21 21 21 21 21 22 23 24 25 26 24 23 22 21 21 21 22 23 23 24 25 26 28 29 31 31 32 31 30 30 30 31 32 32 33 34 35 35 35 35 36
22 22 22 22 22 22 22 22 23 25 25 25 25 24 24 24 24 24 24 24 25 26 27 29 30 31 31 31 32 32 32 32 32 34 35 36 37 38 38 38 38 39
25 24 24 24 24 24 24 24 25 25 26 27 28 28 27 27 27 27 27 27 28 30 31 32 32 32 31 31 32 33 33 34 35 36 37 39 40 41 41 41 42 43
Wind_Direction
242 241 237 236 237 238 240 243 245 244 245 246 246 246 246 246 246 245 242 237 233 231 231 234 237 241 245 247 248 249 249 250 251 252 253 253 253 256 260 264 267 269
240 240 236 233 233 232 234 239 241 240 242 244 244 245 244 242 241 242 239 235 233 233 233 235 239 243 246 248 249 250 251 253 254 254 254 254 254 255 258 262 266 269
234 235 231 227 225 225 228 234 237 237 240 242 243 245 243 237 235 238 238 235 234 236 237 239 244 247 248 248 249 251 252 254 256 258 259 258 257 257 258 261 265 268
225 225 223 220 219 220 223 229 233 235 239 242 242 242 240 234 233 237 238 237 237 238 241 244 248 251 251 250 250 251 252 253 255 259 262 263 263 262 261 262 264 266
219 219 218 217 217 220 223 227 231 234 238 242 242 241 239 238 238 240 240 241 241 243 246 249 251 253 253 251 249 250 251 253 256 261 264 266 267 266 264 264 265 265
217 218 218 217 217 218 222 226 231 235 237 238 241 242 242 242 243 244 243 243 243 245 248 251 253 253 251 249 248 251 254 257 260 262 264 265 266 266 265 264 264 264
217 217 219 220 217 215 217 223 228 232 234 235 237 239 240 241 241 242 242 241 242 245 247 250 251 250 249 248 250 254 256 258 259 259 259 260 261 263 264 264 264 264
218 216 217 220 220 217 215 219 224 229 233 235 236 236 237 238 237 237 238 239 241 243 244 245 246 246 245 247 252 256 257 257 257 257 256 255 256 259 262 264 264 264
220 219 217 215 217 217 216 219 224 230 235 238 238 237 236 236 235 234 236 238 240 242 243 243 243 244 244 247 252 255 256 255 254 254 253 252 253 254 257 260 261 262
224 224 222 217 215 216 216 219 224 230 236 239 240 238 237 236 233 233 236 238 240 242 244 245 244 243 242 242 246 251 254 253 251 249 248 249 250 251 254 256 258 259
224 225 224 220 218 217 218 221 225 230 235 238 238 238 237 236 235 235 238 240 242 243 244 246 245 242 237 237 244 251 254 254 252 249 247 247 248 250 253 256 258 259
227 229 227 226 225 224 223 225 228 232 236 239 240 239 238 238 237 239 242 243 244 244 243 244 245 241 238 242 248 253 256 257 256 253 250 248 249 250 253 256 259 260
235 235 233 231 233 234 233 231 231 234 237 241 243 241 238 238 239 242 244 245 246 246 244 243 242 240 241 246 252 256 258 258 256 255 253 250 249 250 251 254 257 259
242 242 238 236 236 238 241 239 235 235 236 239 242 241 238 238 240 243 244 245 249 250 247 244 241 241 247 252 255 258 260 258 253 252 252 251 250 250 250 251 254 257
244 244 242 240 240 241 244 246 243 240 237 235 236 238 238 239 241 242 241 242 247 250 251 249 246 247 255 261 261 259 258 256 251 249 251 252 250 249 250 251 253 256
242 244 244 243 243 244 247 248 247 247 245 240 237 238 239 239 239 238 237 239 244 248 251 252 253 255 260 264 263 259 255 252 250 251 254 253 249 248 249 251 254 256
239 244 249 248 246 245 247 250 250 251 250 245 241 240 239 238 238 237 236 237 241 246 251 254 257 259 261 262 262 258 252 249 251 256 257 254 249 246 247 249 253 256
236 242 248 249 248 245 246 250 253 253 251 249 247 245 244 243 242 239 236 237 240 244 250 255 258 260 261 262 261 257 252 250 252 257 258 254 249 245 244 246 250 254
239 243 246 246 247 246 246 248 250 249 248 249 250 251 248 245 244 242 239 238 239 241 246 253 257 259 260 259 257 254 250 249 250 254 256 253 248 244 243 244 247 250
242 243 244 244 246 248 248 249 249 246 244 243 245 247 243 240 242 244 242 240 239 240 245 251 253 254 253 252 252 251 250 249 249 252 253 252 248 244 243 245 247 249
238 238 240 242 244 247 249 250 249 246 243 245 250 251 246 240 240 242 243 243 241 242 246 249 250 250 250 250 249 249 249 250 250 250 251 250 248 246 245 246 248 250
237 238 240 241 243 245 248 251 251 249 248 252 257 259 255 249 244 244 244 246 246 247 250 252 253 254 254 253 252 250 249 250 249 249 248 248 248 248 248 248 249 250
240 242 243 245 245 246 248 250 252 253 254 255 256 256 255 252 250 250 250 251 253 255 257 258 259 260 259 258 256 254 253 252 251 250 250 249 250 251 250 250 251 252
245 247 248 248 249 248 249 250 252 254 256 256 254 253 254 254 255 255 255 256 258 260 262 264 264 264 264 263 261 259 256 254 253 252 251 252 254 255 254 253 254 254
245 247 248 249 248 247 247 248 249 252 255 256 256 256 257 257 256 256 257 259 262 265 267 268 267 266 266 266 266 263 260 258 255 254 254 255 257 259 259 260 260 260
248 248 249 249 248 247 246 245 245 247 249 252 255 256 257 257 256 257 259 262 265 268 268 267 264 263 263 263 263 263 262 261 259 259 259 261 262 264 266 266 266 265